Location: Unspecified
(43.1763°N, 79.4719°W)
Time: 01:51:53
(UTC-04:00)

Cosmos 1674 - Visible Passes

Search period start: 19 March 2019 00:00
Search period end: 29 March 2019 00:00
Orbit: 495 x 521 km, 82.5° (Epoch: 18 March)

Date Brightness Start Highest point End Pass type
(mag) Time Alt. Az. Time Alt. Az. Time Alt. Az.
19 Mar 4.4 21:49:41 10° N 21:51:28 26° N 21:51:28 26° N visible
20 Mar 3.7 21:32:16 10° N 21:34:40 36° NNE 21:34:40 36° NNE visible
21 Mar 3.2 21:14:52 10° N 21:17:55 42° NE 21:17:55 42° NE visible
21 Mar 5.9 22:52:17 10° WNW 22:52:48 11° WNW 22:52:48 11° WNW visible
22 Mar 3.2 20:57:32 10° N 21:01:02 35° ENE 21:01:14 35° E visible
22 Mar 5.5 22:34:03 10° NW 22:36:07 15° W 22:36:07 15° W visible
23 Mar 3.6 20:40:14 10° NNE 20:43:31 27° ENE 20:44:37 24° ESE visible
23 Mar 5.1 22:16:08 10° NW 22:18:53 19° W 22:19:31 18° WSW visible
24 Mar 4.0 20:23:01 10° NNE 20:26:00 22° ENE 20:28:04 14° ESE visible
24 Mar 4.8 21:58:22 10° NW 22:01:30 25° W 22:02:58 19° SW visible
25 Mar 4.3 20:05:53 10° NNE 20:08:27 17° ENE 20:11:01 10° ESE visible
25 Mar 4.4 21:40:42 10° NNW 21:44:05 32° W 21:46:32 16° SSW visible
26 Mar 3.9 21:23:04 10° NNW 21:26:40 42° W 21:30:13 10° SSW visible
27 Mar 3.3 21:05:31 10° NNW 21:09:14 56° W 21:12:58 10° S visible
28 Mar 2.8 20:47:59 10° NNW 20:51:47 75° W 20:55:35 10° S visible
